TimeCDT,TemperatureF,Dew PointF,Humidity,Sea Level PressureIn,VisibilityMPH,Wind Direction,Wind SpeedMPH,Gust SpeedMPH,PrecipitationIn,Events,Conditions,WindDirDegrees,DateUTC
12:15 AM,64.4,56.7,76,29.64,10.0,SW,9.2,-,N/A,,Clear,220,2013-06-01 05:15:00
12:35 AM,64.4,55.4,73,29.63,10.0,SSW,10.4,-,N/A,,Clear,210,2013-06-01 05:35:00
12:55 AM,62.2,55.4,78,29.64,10.0,SSW,8.1,-,N/A,,Clear,200,2013-06-01 05:55:00
1:15 AM,63.5,52.2,67,29.65,10.0,WSW,13.8,-,N/A,,Clear,240,2013-06-01 06:15:00
1:35 AM,63.1,50.4,63,29.66,10.0,WSW,15.0,-,N/A,,Clear,250,2013-06-01 06:35:00
1:55 AM,61.7,50.0,65,29.66,10.0,WSW,10.4,-,N/A,,Clear,250,2013-06-01 06:55:00
2:15 AM,59.7,50.9,73,29.66,10.0,WSW,9.2,-,N/A,,Clear,250,2013-06-01 07:15:00
2:35 AM,60.1,48.6,66,29.65,10.0,West,12.7,-,N/A,,Clear,260,2013-06-01 07:35:00
2:55 AM,59.2,48.4,67,29.65,10.0,WSW,10.4,-,N/A,,Clear,250,2013-06-01 07:55:00
3:15 AM,57.4,49.1,74,29.65,10.0,SW,8.1,-,N/A,,Clear,230,2013-06-01 08:15:00
3:35 AM,57.4,48.4,72,29.64,10.0,WSW,10.4,-,N/A,,Clear,240,2013-06-01 08:35:00
3:55 AM,57.4,48.2,71,29.63,10.0,WSW,10.4,-,N/A,,Clear,240,2013-06-01 08:55:00
4:15 AM,55.9,48.6,76,29.63,10.0,SW,8.1,-,N/A,,Clear,230,2013-06-01 09:15:00
4:35 AM,55.6,48.4,77,29.64,10.0,SW,9.2,-,N/A,,Clear,230,2013-06-01 09:35:00
4:55 AM,55.2,48.6,78,29.65,10.0,SW,8.1,-,N/A,,Clear,220,2013-06-01 09:55:00
5:15 AM,55.0,48.4,78,29.66,10.0,SSW,8.1,-,N/A,,Clear,210,2013-06-01 10:15:00
5:35 AM,55.6,48.0,76,29.66,10.0,SW,11.5,-,N/A,,Clear,230,2013-06-01 10:35:00
5:55 AM,55.4,48.2,77,29.66,10.0,SW,10.4,-,N/A,,Clear,230,2013-06-01 10:55:00
6:15 AM,55.4,48.4,77,29.66,10.0,SW,6.9,-,N/A,,Clear,220,2013-06-01 11:15:00
6:35 AM,55.8,49.1,78,29.65,10.0,SW,8.1,-,N/A,,Clear,230,2013-06-01 11:35:00
6:55 AM,56.8,49.1,75,29.65,10.0,WSW,10.4,-,N/A,,Clear,240,2013-06-01 11:55:00
7:15 AM,57.7,49.6,74,29.66,10.0,WSW,9.2,-,N/A,,Clear,250,2013-06-01 12:15:00
7:35 AM,58.5,50.2,74,29.67,10.0,WSW,11.5,-,N/A,,Mostly Cloudy,240,2013-06-01 12:35:00
7:55 AM,59.0,50.5,73,29.67,10.0,West,10.4,-,N/A,,Overcast,260,2013-06-01 12:55:00
8:15 AM,59.4,50.9,74,29.68,10.0,West,12.7,16.1,N/A,,Overcast,260,2013-06-01 13:15:00
8:35 AM,59.5,51.1,74,29.69,10.0,WSW,12.7,-,N/A,,Overcast,250,2013-06-01 13:35:00
8:55 AM,59.9,51.6,74,29.69,10.0,West,10.4,-,N/A,,Overcast,280,2013-06-01 13:55:00
9:15 AM,60.4,52.5,75,29.70,10.0,West,9.2,-,N/A,,Overcast,260,2013-06-01 14:15:00
9:35 AM,60.8,52.2,73,29.69,10.0,West,11.5,-,N/A,,Overcast,260,2013-06-01 14:35:00
9:55 AM,61.2,52.5,73,29.70,10.0,West,11.5,-,N/A,,Overcast,260,2013-06-01 14:55:00
10:15 AM,61.3,52.7,73,29.70,10.0,West,11.5,-,N/A,,Overcast,260,2013-06-01 15:15:00
10:35 AM,60.8,53.2,76,29.70,10.0,WSW,12.7,-,N/A,,Overcast,250,2013-06-01 15:35:00
10:55 AM,61.0,53.2,76,29.70,10.0,WSW,10.4,-,N/A,,Overcast,250,2013-06-01 15:55:00
11:15 AM,61.2,53.4,76,29.71,10.0,WSW,11.5,-,N/A,,Overcast,250,2013-06-01 16:15:00
11:35 AM,61.7,54.1,76,29.72,10.0,West,10.4,-,N/A,,Overcast,260,2013-06-01 16:35:00
11:55 AM,62.2,54.1,75,29.72,10.0,West,8.1,-,N/A,,Overcast,260,2013-06-01 16:55:00
12:15 PM,62.6,54.5,75,29.73,10.0,West,9.2,-,N/A,,Overcast,260,2013-06-01 17:15:00
12:35 PM,62.6,54.7,75,29.74,10.0,West,10.4,-,N/A,,Overcast,260,2013-06-01 17:35:00
12:55 PM,62.6,55.6,78,29.74,7.0,West,16.1,20.7,N/A,,Overcast,280,2013-06-01 17:55:00
1:15 PM,65.3,57.6,76,29.74,10.0,West,13.8,-,N/A,,Overcast,260,2013-06-01 18:15:00
1:35 PM,65.7,55.9,71,29.74,10.0,West,15.0,20.7,N/A,,Overcast,280,2013-06-01 18:35:00
1:55 PM,66.0,54.9,67,29.74,10.0,West,12.7,19.6,N/A,,Overcast,270,2013-06-01 18:55:00
2:15 PM,67.3,54.9,64,29.74,10.0,West,12.7,-,N/A,,Overcast,270,2013-06-01 19:15:00
2:35 PM,67.3,54.9,64,29.74,10.0,West,12.7,-,N/A,,Overcast,280,2013-06-01 19:35:00
2:55 PM,67.5,55.2,65,29.74,10.0,West,12.7,-,N/A,,Overcast,260,2013-06-01 19:55:00
3:15 PM,68.2,56.1,65,29.74,10.0,West,15.0,19.6,N/A,,Overcast,260,2013-06-01 20:15:00
3:35 PM,68.5,56.1,64,29.74,10.0,West,15.0,18.4,N/A,,Overcast,280,2013-06-01 20:35:00
3:55 PM,67.6,56.8,68,29.76,10.0,West,21.9,-,N/A,,Overcast,270,2013-06-01 20:55:00
4:15 PM,67.1,58.1,73,29.75,10.0,West,15.0,-,N/A,,Overcast,270,2013-06-01 21:15:00
4:35 PM,63.3,58.8,85,29.76,2.5,WNW,13.8,23.0,0.07,Rain,Light Rain,290,2013-06-01 21:35:00
4:55 PM,65.1,59.5,82,29.77,10.0,NW,17.3,24.2,0.07,,Overcast,310,2013-06-01 21:55:00
5:15 PM,64.6,58.8,82,29.78,10.0,NW,17.3,23.0,N/A,,Overcast,320,2013-06-01 22:15:00
5:35 PM,64.2,57.6,79,29.80,10.0,NW,19.6,24.2,N/A,,Overcast,310,2013-06-01 22:35:00
5:55 PM,63.9,57.0,78,29.81,10.0,NW,16.1,26.5,N/A,,Overcast,310,2013-06-01 22:55:00
6:15 PM,63.5,56.7,78,29.81,10.0,NW,12.7,-,N/A,,Overcast,310,2013-06-01 23:15:00
6:35 PM,63.7,56.1,76,29.82,10.0,NW,15.0,19.6,N/A,,Overcast,310,2013-06-01 23:35:00
6:55 PM,63.5,55.4,75,29.82,10.0,NW,17.3,24.2,N/A,,Overcast,320,2013-06-01 23:55:00
7:15 PM,62.8,54.9,75,29.84,10.0,NW,13.8,18.4,N/A,,Overcast,310,2013-06-02 00:15:00
7:35 PM,62.6,53.8,73,29.84,10.0,NW,15.0,25.3,N/A,,Overcast,310,2013-06-02 00:35:00
7:55 PM,61.9,52.9,72,29.86,10.0,NW,17.3,27.6,N/A,,Overcast,320,2013-06-02 00:55:00
8:15 PM,60.8,52.5,74,29.86,10.0,NW,16.1,-,N/A,,Overcast,320,2013-06-02 01:15:00
8:35 PM,60.1,52.2,75,29.87,10.0,NW,18.4,21.9,N/A,,Overcast,310,2013-06-02 01:35:00
8:55 PM,59.5,51.1,74,29.88,10.0,NW,20.7,26.5,N/A,,Overcast,320,2013-06-02 01:55:00
9:15 PM,59.0,50.4,73,29.89,10.0,NW,17.3,26.5,N/A,,Overcast,320,2013-06-02 02:15:00
9:35 PM,58.3,50.0,74,29.90,10.0,NW,20.7,29.9,N/A,,Overcast,320,2013-06-02 02:35:00
9:55 PM,57.7,49.8,75,29.92,10.0,NW,18.4,25.3,N/A,,Overcast,320,2013-06-02 02:55:00
10:15 PM,57.2,49.1,74,29.93,10.0,NW,19.6,25.3,N/A,,Overcast,320,2013-06-02 03:15:00
10:35 PM,56.8,48.9,75,29.94,10.0,NW,17.3,25.3,N/A,,Overcast,320,2013-06-02 03:35:00
10:55 PM,56.3,48.4,75,29.94,10.0,NW,15.0,-,N/A,,Overcast,320,2013-06-02 03:55:00
11:15 PM,55.9,48.2,75,29.95,10.0,NW,16.1,-,N/A,,Overcast,310,2013-06-02 04:15:00
11:35 PM,55.4,47.8,76,29.96,10.0,NW,16.1,21.9,N/A,,Overcast,310,2013-06-02 04:35:00
11:55 PM,55.4,47.8,76,29.96,10.0,NW,15.0,18.4,N/A,,Overcast,310,2013-06-02 04:55:00